GEFSNGP_prec_meanprecacc_336.txt.gz
Total_Precipitation_Accumulation
0.62 0.60 0.61 0.59 0.55 0.56 0.66 0.77 1.20 1.56 2.01 2.37 2.28 2.42 2.68 2.67 2.50 2.36 2.40 2.40 2.33 2.35 2.26 2.23 2.19 2.02 1.88 1.75 1.64 1.57 1.55 1.51 1.59 1.69 1.68 1.61 1.54 1.49 1.44 1.36 1.26 1.26 1.24 1.18
0.60 0.53 0.57 0.63 0.67 0.62 0.64 0.81 1.18 1.57 2.09 2.19 2.19 2.29 2.42 2.56 2.48 2.37 2.37 2.43 2.48 2.59 2.54 2.49 2.44 2.24 2.07 1.92 1.70 1.57 1.55 1.52 1.55 1.61 1.60 1.54 1.50 1.45 1.40 1.35 1.33 1.30 1.25 1.19
0.76 0.55 0.81 1.18 1.02 0.89 0.88 0.99 1.29 1.71 1.93 1.87 1.99 2.25 2.38 2.45 2.54 2.52 2.60 2.72 2.76 2.71 2.69 2.61 2.54 2.53 2.45 2.19 1.93 1.81 1.69 1.58 1.56 1.53 1.48 1.44 1.32 1.30 1.37 1.38 1.35 1.27 1.22 1.20
0.94 1.03 1.62 1.52 1.02 0.95 1.10 1.27 1.36 1.48 1.53 1.71 1.94 2.14 2.29 2.47 2.66 2.69 2.67 2.61 2.68 2.63 2.64 2.58 2.49 2.45 2.41 2.31 2.10 1.84 1.72 1.57 1.47 1.47 1.44 1.44 1.40 1.36 1.40 1.42 1.35 1.33 1.29 1.26
1.15 1.52 1.65 1.54 1.10 1.09 1.32 1.71 1.53 1.56 1.55 1.67 1.78 2.00 2.40 2.44 2.52 2.71 2.56 2.46 2.53 2.62 2.65 2.63 2.52 2.33 2.21 2.16 2.07 1.95 1.74 1.52 1.39 1.39 1.36 1.36 1.37 1.37 1.39 1.39 1.33 1.28 1.26 1.28
1.40 1.79 2.02 1.81 1.06 0.90 1.37 2.42 1.82 1.69 1.71 1.70 1.81 2.36 2.51 2.22 2.14 2.24 2.31 2.41 2.52 2.63 2.70 2.68 2.61 2.28 2.12 2.00 1.87 1.72 1.52 1.38 1.32 1.32 1.27 1.24 1.29 1.34 1.36 1.37 1.32 1.27 1.25 1.29
1.55 2.03 2.13 1.33 0.85 0.98 1.98 2.49 1.91 1.78 1.74 1.78 2.01 2.20 1.99 1.83 1.91 2.08 2.25 2.38 2.47 2.50 2.52 2.47 2.45 2.21 2.08 1.88 1.71 1.44 1.25 1.22 1.25 1.23 1.17 1.12 1.17 1.22 1.29 1.27 1.28 1.28 1.20 1.18
1.75 2.21 2.36 1.18 0.98 1.41 1.77 1.48 1.41 1.43 1.41 1.46 1.57 1.64 1.69 1.73 1.81 1.90 2.05 2.22 2.31 2.35 2.32 2.21 2.11 2.03 1.92 1.74 1.47 1.27 1.15 1.12 1.19 1.23 1.04 0.93 1.04 1.05 1.09 1.25 1.22 1.20 1.22 1.12
1.99 2.35 1.96 1.29 1.25 1.24 1.26 1.26 1.21 1.27 1.24 1.26 1.34 1.40 1.54 1.73 1.82 1.83 1.80 1.97 2.03 1.93 1.83 1.83 1.78 1.74 1.67 1.50 1.29 1.17 1.15 1.19 1.19 1.17 1.10 1.05 1.07 1.04 1.07 1.17 1.18 1.10 1.10 1.04
1.76 1.86 1.54 1.24 1.14 1.12 1.02 1.00 1.04 1.17 1.17 1.12 1.11 1.08 1.21 1.37 1.53 1.63 1.61 1.61 1.68 1.65 1.59 1.55 1.49 1.42 1.35 1.22 1.19 1.18 1.18 1.21 1.25 1.21 1.10 1.06 1.12 1.03 1.02 1.02 1.06 1.03 0.99 0.99
1.85 1.81 1.58 1.37 1.18 1.06 1.02 0.99 1.04 1.10 1.03 0.94 0.90 0.89 0.94 1.10 1.21 1.30 1.37 1.33 1.35 1.45 1.47 1.36 1.26 1.21 1.15 1.06 1.06 1.19 1.24 1.19 1.18 1.09 1.07 1.10 1.04 0.91 0.85 0.81 0.85 0.92 0.92 0.90
2.04 1.74 1.65 1.49 1.15 0.96 0.98 0.98 0.94 0.92 0.85 0.83 0.80 0.78 0.82 1.00 1.12 1.17 1.18 1.19 1.26 1.32 1.29 1.24 1.17 1.09 1.03 0.96 0.98 1.11 1.19 1.16 1.08 1.01 0.99 0.96 0.99 0.92 0.83 0.77 0.76 0.74 0.78 0.74
1.39 1.21 1.17 1.10 1.00 0.98 0.89 0.83 0.84 0.80 0.72 0.71 0.72 0.68 0.78 0.93 0.95 1.00 1.05 1.08 1.20 1.22 1.17 1.09 1.05 1.07 1.06 1.00 0.94 0.99 1.04 1.01 0.99 0.96 0.94 0.89 0.90 0.95 0.94 0.77 0.69 0.67 0.70 0.68
1.02 1.06 1.12 0.98 0.86 0.81 0.74 0.68 0.68 0.67 0.66 0.67 0.68 0.64 0.68 0.73 0.78 0.87 0.95 1.00 1.04 1.00 1.04 1.08 1.00 0.95 0.96 0.94 0.88 0.84 0.88 0.85 0.83 0.87 0.88 0.85 0.81 0.79 0.81 0.80 0.78 0.70 0.65 0.66
0.88 0.87 0.93 0.81 0.67 0.67 0.68 0.62 0.66 0.71 0.68 0.68 0.65 0.59 0.58 0.66 0.73 0.79 0.79 0.83 0.87 0.86 0.85 0.91 0.98 0.92 0.85 0.83 0.82 0.78 0.79 0.79 0.73 0.73 0.78 0.78 0.76 0.76 0.73 0.74 0.74 0.71 0.64 0.61
0.79 0.72 0.67 0.65 0.59 0.59 0.65 0.68 0.70 0.72 0.72 0.71 0.68 0.64 0.62 0.68 0.75 0.78 0.74 0.75 0.80 0.76 0.71 0.75 0.83 0.81 0.74 0.70 0.70 0.72 0.71 0.74 0.70 0.64 0.65 0.71 0.71 0.70 0.68 0.68 0.68 0.67 0.63 0.57
0.83 0.81 0.74 0.70 0.66 0.65 0.68 0.70 0.67 0.64 0.66 0.72 0.70 0.63 0.60 0.66 0.76 0.77 0.78 0.71 0.65 0.62 0.58 0.59 0.68 0.71 0.72 0.66 0.61 0.57 0.61 0.66 0.70 0.64 0.59 0.59 0.59 0.59 0.57 0.60 0.65 0.67 0.62 0.60
0.72 0.70 0.69 0.73 0.71 0.70 0.69 0.65 0.62 0.61 0.61 0.66 0.68 0.67 0.66 0.72 0.75 0.70 0.68 0.60 0.57 0.57 0.52 0.47 0.55 0.64 0.70 0.70 0.62 0.55 0.55 0.58 0.61 0.61 0.59 0.56 0.54 0.55 0.57 0.55 0.54 0.60 0.63 0.68
0.59 0.59 0.63 0.69 0.71 0.75 0.73 0.66 0.61 0.56 0.55 0.60 0.65 0.71 0.74 0.73 0.71 0.65 0.62 0.62 0.64 0.68 0.59 0.51 0.57 0.61 0.63 0.63 0.67 0.66 0.64 0.63 0.62 0.64 0.63 0.59 0.56 0.58 0.61 0.59 0.56 0.56 0.57 0.63
0.58 0.59 0.61 0.65 0.61 0.61 0.62 0.58 0.56 0.52 0.55 0.60 0.60 0.60 0.69 0.69 0.66 0.65 0.65 0.66 0.62 0.60 0.55 0.51 0.52 0.58 0.61 0.61 0.68 0.66 0.69 0.67 0.65 0.68 0.72 0.67 0.63 0.62 0.60 0.60 0.61 0.63 0.63 0.66
0.60 0.62 0.60 0.59 0.55 0.49 0.49 0.51 0.52 0.53 0.57 0.61 0.55 0.52 0.58 0.62 0.59 0.64 0.68 0.65 0.56 0.53 0.57 0.57 0.51 0.51 0.56 0.62 0.71 0.69 0.70 0.71 0.70 0.67 0.68 0.70 0.65 0.69 0.68 0.64 0.63 0.64 0.67 0.68
0.68 0.68 0.60 0.60 0.59 0.53 0.50 0.52 0.50 0.48 0.49 0.52 0.51 0.53 0.56 0.60 0.59 0.63 0.67 0.61 0.49 0.47 0.48 0.52 0.50 0.51 0.53 0.58 0.61 0.64 0.64 0.67 0.68 0.65 0.63 0.66 0.68 0.70 0.68 0.66 0.66 0.64 0.63 0.63
0.75 0.73 0.64 0.67 0.65 0.62 0.60 0.51 0.44 0.45 0.50 0.52 0.52 0.53 0.56 0.59 0.60 0.63 0.63 0.53 0.46 0.46 0.44 0.45 0.49 0.49 0.47 0.45 0.50 0.57 0.57 0.59 0.62 0.63 0.60 0.62 0.65 0.66 0.62 0.62 0.65 0.66 0.61 0.61
0.79 0.80 0.71 0.68 0.62 0.68 0.67 0.55 0.48 0.53 0.60 0.56 0.53 0.53 0.52 0.53 0.55 0.53 0.53 0.56 0.54 0.50 0.43 0.44 0.47 0.45 0.45 0.40 0.43 0.51 0.56 0.56 0.54 0.54 0.55 0.55 0.58 0.62 0.60 0.58 0.62 0.62 0.58 0.55
0.82 0.83 0.77 0.75 0.76 0.76 0.72 0.65 0.62 0.59 0.60 0.57 0.54 0.53 0.52 0.55 0.59 0.57 0.52 0.48 0.51 0.47 0.40 0.43 0.46 0.46 0.41 0.40 0.44 0.46 0.47 0.53 0.55 0.51 0.49 0.50 0.51 0.53 0.55 0.56 0.57 0.57 0.57 0.57
0.87 0.89 0.84 0.81 0.80 0.77 0.74 0.73 0.75 0.72 0.68 0.66 0.61 0.58 0.54 0.52 0.54 0.57 0.51 0.47 0.46 0.44 0.40 0.42 0.44 0.46 0.40 0.38 0.43 0.43 0.41 0.45 0.49 0.51 0.50 0.52 0.54 0.53 0.53 0.53 0.53 0.53 0.53 0.56
0.86 0.87 0.85 0.76 0.70 0.70 0.78 0.82 0.82 0.81 0.77 0.76 0.73 0.68 0.60 0.57 0.55 0.57 0.55 0.53 0.50 0.45 0.43 0.44 0.45 0.44 0.41 0.41 0.43 0.45 0.41 0.40 0.42 0.44 0.46 0.49 0.52 0.54 0.55 0.55 0.53 0.51 0.49 0.52

GEFSNGP_prec_meanprecacc_342.txt.gz
Total_Precipitation_Accumulation
0.63 0.61 0.61 0.60 0.56 0.56 0.66 0.77 1.21 1.57 2.01 2.38 2.29 2.44 2.71 2.71 2.54 2.40 2.45 2.45 2.40 2.44 2.37 2.33 2.29 2.13 1.98 1.82 1.68 1.62 1.59 1.56 1.64 1.75 1.74 1.67 1.59 1.52 1.48 1.39 1.28 1.29 1.28 1.22
0.61 0.55 0.58 0.64 0.68 0.63 0.65 0.81 1.19 1.58 2.09 2.20 2.20 2.31 2.45 2.60 2.53 2.41 2.42 2.49 2.54 2.68 2.63 2.57 2.53 2.35 2.19 2.02 1.76 1.62 1.59 1.56 1.59 1.66 1.65 1.58 1.54 1.47 1.42 1.37 1.34 1.31 1.27 1.22
0.78 0.57 0.82 1.19 1.02 0.89 0.88 0.99 1.30 1.72 1.94 1.88 2.00 2.27 2.41 2.48 2.57 2.55 2.64 2.78 2.82 2.76 2.74 2.68 2.60 2.61 2.60 2.32 2.01 1.86 1.73 1.61 1.59 1.56 1.51 1.47 1.36 1.33 1.39 1.41 1.37 1.29 1.23 1.22
0.95 1.05 1.64 1.52 1.03 0.95 1.11 1.27 1.36 1.48 1.54 1.72 1.95 2.16 2.31 2.50 2.70 2.73 2.71 2.65 2.72 2.66 2.67 2.63 2.54 2.51 2.51 2.42 2.18 1.89 1.76 1.61 1.51 1.50 1.46 1.46 1.43 1.39 1.43 1.45 1.38 1.35 1.31 1.27
1.18 1.53 1.66 1.54 1.10 1.10 1.33 1.72 1.54 1.57 1.56 1.68 1.80 2.02 2.42 2.47 2.55 2.75 2.62 2.49 2.56 2.66 2.69 2.68 2.57 2.39 2.31 2.22 2.13 2.00 1.77 1.55 1.42 1.43 1.40 1.39 1.40 1.40 1.41 1.42 1.35 1.30 1.28 1.30
1.42 1.81 2.04 1.81 1.07 0.91 1.38 2.43 1.83 1.70 1.73 1.72 1.84 2.39 2.53 2.24 2.16 2.27 2.36 2.45 2.55 2.66 2.73 2.71 2.65 2.33 2.18 2.07 1.93 1.77 1.55 1.41 1.35 1.37 1.31 1.27 1.32 1.36 1.39 1.40 1.34 1.30 1.27 1.31
1.58 2.04 2.14 1.34 0.86 0.99 1.99 2.50 1.92 1.79 1.76 1.80 2.03 2.22 2.01 1.84 1.93 2.10 2.28 2.41 2.50 2.53 2.56 2.51 2.49 2.26 2.13 1.94 1.79 1.50 1.28 1.25 1.29 1.29 1.23 1.17 1.21 1.25 1.32 1.30 1.30 1.31 1.22 1.21
1.77 2.22 2.37 1.19 0.99 1.42 1.78 1.49 1.42 1.44 1.42 1.47 1.58 1.65 1.70 1.75 1.83 1.91 2.07 2.25 2.33 2.38 2.36 2.25 2.16 2.08 1.96 1.79 1.52 1.33 1.21 1.18 1.25 1.31 1.14 1.03 1.11 1.10 1.14 1.29 1.25 1.23 1.24 1.14
2.01 2.37 1.97 1.29 1.25 1.25 1.27 1.28 1.22 1.27 1.25 1.28 1.35 1.42 1.55 1.74 1.84 1.86 1.84 2.01 2.06 1.98 1.87 1.88 1.83 1.79 1.72 1.54 1.33 1.21 1.23 1.29 1.29 1.26 1.19 1.15 1.15 1.10 1.14 1.22 1.22 1.14 1.13 1.06
1.78 1.87 1.55 1.25 1.15 1.14 1.04 1.02 1.05 1.18 1.18 1.14 1.12 1.09 1.22 1.39 1.56 1.66 1.64 1.65 1.73 1.71 1.64 1.60 1.53 1.46 1.40 1.27 1.23 1.22 1.25 1.33 1.41 1.31 1.17 1.16 1.19 1.08 1.07 1.08 1.10 1.07 1.04 1.03
1.86 1.82 1.59 1.38 1.19 1.10 1.07 1.05 1.07 1.11 1.04 0.96 0.91 0.90 0.95 1.11 1.23 1.32 1.41 1.36 1.39 1.51 1.53 1.40 1.29 1.25 1.20 1.11 1.11 1.24 1.29 1.25 1.29 1.21 1.17 1.18 1.14 0.99 0.92 0.87 0.92 1.00 1.00 0.99
2.06 1.75 1.66 1.51 1.17 0.98 1.01 1.03 0.97 0.93 0.86 0.85 0.81 0.80 0.83 1.01 1.12 1.19 1.21 1.23 1.29 1.36 1.33 1.26 1.18 1.12 1.06 0.99 1.02 1.17 1.24 1.20 1.12 1.08 1.09 1.05 1.10 1.05 0.95 0.89 0.87 0.83 0.86 0.82
1.41 1.22 1.19 1.13 1.03 0.99 0.91 0.85 0.87 0.82 0.75 0.73 0.73 0.69 0.78 0.94 0.97 1.02 1.09 1.13 1.23 1.24 1.19 1.10 1.06 1.09 1.08 1.03 0.98 1.04 1.09 1.08 1.06 1.03 1.03 0.97 0.98 1.05 1.06 0.88 0.79 0.76 0.77 0.74
1.04 1.08 1.15 1.01 0.89 0.82 0.75 0.70 0.71 0.69 0.67 0.68 0.69 0.65 0.69 0.75 0.79 0.88 0.98 1.04 1.07 1.01 1.06 1.09 1.01 0.97 0.98 0.95 0.90 0.86 0.91 0.89 0.88 0.92 0.92 0.89 0.85 0.84 0.86 0.86 0.84 0.75 0.70 0.71
0.91 0.89 0.96 0.84 0.70 0.69 0.69 0.64 0.69 0.74 0.70 0.70 0.67 0.61 0.59 0.68 0.75 0.80 0.82 0.86 0.89 0.88 0.87 0.93 0.99 0.93 0.85 0.83 0.82 0.78 0.79 0.81 0.77 0.77 0.83 0.83 0.80 0.79 0.77 0.77 0.78 0.75 0.67 0.64
0.82 0.74 0.70 0.68 0.62 0.63 0.69 0.72 0.73 0.75 0.75 0.74 0.70 0.65 0.64 0.70 0.76 0.78 0.76 0.78 0.82 0.78 0.74 0.77 0.84 0.82 0.75 0.71 0.70 0.72 0.71 0.75 0.71 0.65 0.67 0.73 0.73 0.73 0.70 0.70 0.71 0.70 0.65 0.59
0.88 0.86 0.78 0.74 0.72 0.72 0.74 0.75 0.70 0.67 0.69 0.74 0.72 0.64 0.61 0.67 0.77 0.78 0.80 0.73 0.67 0.65 0.60 0.61 0.69 0.72 0.73 0.67 0.62 0.58 0.62 0.66 0.71 0.65 0.60 0.60 0.60 0.60 0.59 0.62 0.67 0.69 0.64 0.62
0.79 0.79 0.77 0.81 0.78 0.76 0.73 0.67 0.64 0.64 0.64 0.69 0.70 0.69 0.68 0.73 0.76 0.71 0.69 0.62 0.58 0.58 0.53 0.49 0.57 0.65 0.71 0.71 0.63 0.57 0.56 0.60 0.62 0.62 0.61 0.58 0.56 0.57 0.58 0.58 0.56 0.62 0.64 0.69
0.68 0.67 0.69 0.73 0.74 0.77 0.75 0.69 0.64 0.59 0.59 0.63 0.68 0.74 0.77 0.75 0.73 0.66 0.63 0.63 0.66 0.70 0.60 0.52 0.59 0.63 0.64 0.64 0.69 0.67 0.66 0.65 0.64 0.65 0.64 0.61 0.58 0.61 0.64 0.62 0.58 0.57 0.58 0.64
0.64 0.64 0.64 0.67 0.62 0.63 0.64 0.60 0.58 0.56 0.59 0.65 0.63 0.62 0.71 0.70 0.68 0.66 0.66 0.67 0.63 0.61 0.56 0.53 0.54 0.60 0.63 0.62 0.69 0.68 0.71 0.69 0.67 0.70 0.74 0.70 0.66 0.66 0.64 0.64 0.64 0.65 0.65 0.67
0.66 0.66 0.63 0.61 0.56 0.50 0.50 0.52 0.53 0.55 0.60 0.65 0.58 0.54 0.59 0.63 0.60 0.65 0.69 0.66 0.57 0.54 0.58 0.59 0.52 0.53 0.58 0.64 0.72 0.70 0.71 0.72 0.72 0.69 0.71 0.73 0.69 0.73 0.72 0.69 0.68 0.68 0.70 0.70
0.73 0.71 0.62 0.62 0.60 0.54 0.51 0.53 0.51 0.50 0.52 0.55 0.53 0.55 0.58 0.60 0.60 0.64 0.67 0.62 0.49 0.48 0.49 0.53 0.51 0.53 0.55 0.60 0.63 0.65 0.65 0.68 0.71 0.68 0.65 0.69 0.71 0.74 0.73 0.71 0.72 0.71 0.69 0.68
0.77 0.75 0.66 0.69 0.66 0.64 0.62 0.52 0.46 0.48 0.52 0.53 0.53 0.55 0.57 0.60 0.60 0.63 0.63 0.54 0.47 0.48 0.45 0.46 0.50 0.50 0.48 0.46 0.51 0.58 0.58 0.61 0.64 0.65 0.63 0.64 0.68 0.69 0.65 0.67 0.72 0.73 0.67 0.67
0.81 0.81 0.73 0.70 0.65 0.70 0.70 0.57 0.50 0.55 0.61 0.58 0.55 0.54 0.52 0.53 0.55 0.54 0.54 0.57 0.56 0.52 0.44 0.45 0.47 0.46 0.46 0.41 0.45 0.52 0.57 0.58 0.56 0.56 0.57 0.57 0.62 0.66 0.64 0.64 0.69 0.69 0.65 0.62
0.83 0.85 0.79 0.77 0.78 0.79 0.75 0.67 0.63 0.61 0.61 0.58 0.56 0.54 0.53 0.55 0.59 0.58 0.53 0.50 0.53 0.50 0.42 0.45 0.48 0.47 0.43 0.42 0.46 0.47 0.49 0.55 0.57 0.53 0.51 0.52 0.54 0.56 0.60 0.62 0.63 0.62 0.63 0.65
0.89 0.91 0.87 0.83 0.82 0.79 0.76 0.75 0.77 0.74 0.70 0.68 0.63 0.59 0.55 0.52 0.55 0.58 0.52 0.48 0.49 0.47 0.41 0.43 0.45 0.48 0.42 0.41 0.46 0.46 0.43 0.47 0.51 0.53 0.53 0.54 0.57 0.56 0.57 0.57 0.57 0.58 0.60 0.62
0.87 0.88 0.86 0.77 0.71 0.72 0.79 0.83 0.84 0.84 0.80 0.79 0.76 0.70 0.62 0.59 0.56 0.57 0.56 0.55 0.53 0.49 0.45 0.47 0.48 0.47 0.45 0.45 0.48 0.49 0.44 0.42 0.45 0.46 0.48 0.51 0.55 0.57 0.57 0.58 0.58 0.56 0.54 0.56

GEFSNGP_prec_meanprecacc_348.txt.gz
Total_Precipitation_Accumulation
0.63 0.62 0.62 0.60 0.56 0.56 0.66 0.78 1.21 1.58 2.02 2.39 2.30 2.45 2.72 2.72 2.55 2.41 2.46 2.48 2.42 2.48 2.42 2.38 2.33 2.17 2.02 1.85 1.70 1.63 1.61 1.58 1.66 1.78 1.79 1.73 1.66 1.62 1.58 1.48 1.37 1.37 1.36 1.27
0.62 0.55 0.58 0.64 0.68 0.63 0.65 0.81 1.19 1.58 2.10 2.21 2.21 2.32 2.46 2.60 2.54 2.43 2.44 2.51 2.56 2.70 2.66 2.60 2.56 2.38 2.21 2.04 1.78 1.63 1.60 1.57 1.60 1.67 1.67 1.62 1.59 1.54 1.49 1.43 1.42 1.40 1.37 1.29
0.79 0.58 0.83 1.19 1.03 0.90 0.88 0.99 1.30 1.72 1.94 1.89 2.01 2.28 2.41 2.49 2.58 2.57 2.67 2.80 2.84 2.78 2.76 2.70 2.62 2.63 2.61 2.34 2.02 1.87 1.75 1.62 1.60 1.57 1.52 1.49 1.39 1.36 1.43 1.44 1.41 1.34 1.29 1.27
0.97 1.06 1.65 1.53 1.03 0.96 1.11 1.27 1.37 1.48 1.54 1.73 1.96 2.17 2.33 2.51 2.71 2.75 2.73 2.68 2.74 2.68 2.70 2.66 2.57 2.54 2.53 2.43 2.19 1.90 1.77 1.63 1.52 1.51 1.47 1.47 1.44 1.41 1.45 1.48 1.40 1.39 1.35 1.31
1.21 1.56 1.67 1.55 1.11 1.11 1.34 1.73 1.54 1.57 1.56 1.69 1.81 2.03 2.43 2.49 2.56 2.77 2.64 2.51 2.58 2.68 2.71 2.70 2.60 2.41 2.32 2.24 2.14 2.01 1.78 1.56 1.43 1.43 1.41 1.40 1.41 1.41 1.44 1.45 1.38 1.33 1.31 1.34
1.45 1.84 2.05 1.82 1.08 0.92 1.39 2.43 1.84 1.71 1.74 1.73 1.85 2.40 2.55 2.26 2.18 2.29 2.38 2.48 2.59 2.70 2.76 2.74 2.69 2.37 2.21 2.09 1.95 1.78 1.56 1.41 1.36 1.37 1.32 1.28 1.34 1.38 1.41 1.42 1.38 1.34 1.30 1.33
1.61 2.06 2.16 1.35 0.86 1.00 2.01 2.51 1.93 1.80 1.77 1.81 2.05 2.23 2.02 1.85 1.94 2.11 2.30 2.43 2.52 2.55 2.58 2.54 2.53 2.30 2.17 1.96 1.80 1.51 1.29 1.25 1.29 1.29 1.24 1.18 1.23 1.28 1.35 1.33 1.34 1.35 1.27 1.24
1.80 2.25 2.38 1.19 0.99 1.43 1.80 1.49 1.43 1.44 1.43 1.48 1.59 1.66 1.71 1.75 1.84 1.93 2.08 2.26 2.35 2.39 2.37 2.27 2.19 2.11 1.99 1.82 1.54 1.35 1.22 1.19 1.25 1.32 1.16 1.06 1.14 1.13 1.17 1.33 1.29 1.27 1.28 1.18
2.02 2.38 1.98 1.30 1.26 1.26 1.28 1.29 1.23 1.28 1.26 1.28 1.36 1.42 1.56 1.75 1.85 1.87 1.85 2.02 2.08 1.99 1.88 1.89 1.85 1.81 1.73 1.56 1.35 1.24 1.26 1.30 1.30 1.28 1.22 1.19 1.20 1.15 1.17 1.27 1.27 1.19 1.17 1.10
1.79 1.88 1.56 1.26 1.16 1.15 1.04 1.03 1.06 1.19 1.19 1.14 1.13 1.09 1.22 1.39 1.57 1.67 1.66 1.66 1.74 1.72 1.64 1.61 1.55 1.47 1.41 1.28 1.24 1.24 1.27 1.35 1.43 1.33 1.19 1.19 1.25 1.13 1.13 1.13 1.15 1.12 1.10 1.08
1.88 1.84 1.61 1.40 1.22 1.11 1.08 1.06 1.09 1.13 1.06 0.97 0.91 0.90 0.95 1.11 1.24 1.34 1.43 1.38 1.41 1.52 1.54 1.41 1.31 1.27 1.21 1.12 1.13 1.26 1.32 1.28 1.32 1.25 1.20 1.22 1.20 1.07 0.99 0.94 0.99 1.06 1.05 1.06
2.10 1.78 1.69 1.55 1.21 1.01 1.04 1.06 1.00 0.95 0.89 0.87 0.82 0.80 0.84 1.01 1.14 1.21 1.24 1.25 1.31 1.37 1.34 1.27 1.19 1.13 1.07 0.99 1.03 1.19 1.27 1.23 1.16 1.12 1.13 1.10 1.15 1.12 1.05 0.98 0.93 0.89 0.91 0.86
1.46 1.27 1.25 1.19 1.07 1.03 0.95 0.89 0.91 0.85 0.78 0.75 0.74 0.69 0.79 0.94 0.98 1.04 1.11 1.14 1.24 1.25 1.20 1.11 1.07 1.10 1.09 1.04 0.99 1.06 1.11 1.10 1.09 1.07 1.08 1.03 1.03 1.11 1.11 0.94 0.84 0.81 0.82 0.78
1.12 1.16 1.24 1.06 0.92 0.85 0.78 0.72 0.73 0.72 0.70 0.70 0.70 0.66 0.69 0.75 0.80 0.89 1.00 1.05 1.08 1.02 1.06 1.09 1.03 0.98 0.99 0.96 0.91 0.87 0.92 0.90 0.89 0.94 0.95 0.94 0.92 0.90 0.91 0.90 0.87 0.78 0.73 0.74
0.97 0.97 1.03 0.88 0.72 0.71 0.72 0.66 0.71 0.76 0.73 0.72 0.69 0.62 0.60 0.69 0.75 0.81 0.83 0.86 0.90 0.89 0.88 0.94 1.01 0.95 0.87 0.83 0.83 0.79 0.80 0.82 0.78 0.78 0.85 0.86 0.86 0.86 0.82 0.82 0.81 0.77 0.70 0.66
0.88 0.81 0.76 0.73 0.66 0.65 0.71 0.74 0.75 0.77 0.77 0.76 0.72 0.66 0.65 0.71 0.77 0.79 0.77 0.78 0.82 0.79 0.75 0.79 0.86 0.83 0.76 0.71 0.71 0.73 0.72 0.75 0.72 0.66 0.68 0.74 0.76 0.77 0.75 0.76 0.76 0.73 0.68 0.61
0.95 0.93 0.83 0.79 0.76 0.75 0.77 0.76 0.71 0.68 0.70 0.76 0.73 0.65 0.61 0.68 0.78 0.79 0.80 0.73 0.67 0.65 0.61 0.63 0.71 0.73 0.73 0.68 0.63 0.60 0.63 0.67 0.71 0.66 0.61 0.61 0.62 0.63 0.61 0.65 0.70 0.72 0.67 0.65
0.84 0.84 0.81 0.84 0.82 0.79 0.75 0.69 0.66 0.65 0.65 0.70 0.71 0.70 0.69 0.74 0.77 0.72 0.70 0.62 0.59 0.60 0.54 0.51 0.58 0.67 0.72 0.72 0.64 0.57 0.57 0.60 0.62 0.63 0.62 0.59 0.57 0.58 0.59 0.59 0.58 0.64 0.66 0.71
0.72 0.71 0.71 0.75 0.77 0.80 0.78 0.71 0.66 0.60 0.60 0.64 0.69 0.75 0.78 0.77 0.74 0.67 0.64 0.64 0.67 0.71 0.61 0.54 0.60 0.64 0.65 0.66 0.70 0.68 0.66 0.65 0.64 0.66 0.65 0.62 0.60 0.62 0.66 0.65 0.61 0.60 0.60 0.66
0.68 0.67 0.67 0.69 0.65 0.65 0.67 0.63 0.61 0.58 0.60 0.66 0.65 0.65 0.73 0.73 0.70 0.68 0.68 0.69 0.65 0.63 0.57 0.54 0.54 0.61 0.64 0.63 0.71 0.69 0.72 0.70 0.68 0.71 0.75 0.71 0.68 0.68 0.67 0.66 0.67 0.68 0.68 0.70
0.68 0.68 0.66 0.65 0.59 0.53 0.54 0.55 0.56 0.57 0.62 0.68 0.62 0.58 0.63 0.67 0.63 0.67 0.71 0.68 0.59 0.55 0.59 0.60 0.53 0.54 0.59 0.65 0.74 0.72 0.72 0.73 0.73 0.70 0.72 0.75 0.71 0.75 0.74 0.71 0.71 0.72 0.75 0.75
0.76 0.75 0.68 0.66 0.63 0.57 0.54 0.56 0.54 0.52 0.54 0.58 0.57 0.59 0.62 0.65 0.64 0.67 0.70 0.64 0.51 0.49 0.49 0.53 0.52 0.55 0.57 0.62 0.64 0.66 0.67 0.69 0.72 0.69 0.67 0.71 0.73 0.76 0.76 0.75 0.77 0.76 0.76 0.76
0.83 0.80 0.71 0.72 0.69 0.67 0.64 0.55 0.48 0.50 0.54 0.56 0.57 0.59 0.61 0.64 0.65 0.67 0.65 0.56 0.49 0.49 0.46 0.47 0.51 0.52 0.51 0.49 0.53 0.60 0.60 0.62 0.66 0.67 0.64 0.67 0.71 0.72 0.69 0.73 0.77 0.78 0.74 0.73
0.85 0.86 0.76 0.72 0.67 0.72 0.72 0.58 0.52 0.56 0.63 0.59 0.58 0.57 0.56 0.56 0.58 0.56 0.55 0.59 0.57 0.53 0.46 0.46 0.49 0.48 0.48 0.43 0.47 0.54 0.59 0.59 0.58 0.57 0.59 0.60 0.64 0.69 0.69 0.69 0.75 0.75 0.70 0.67
0.87 0.88 0.81 0.79 0.81 0.81 0.76 0.69 0.64 0.62 0.62 0.60 0.58 0.58 0.56 0.56 0.61 0.58 0.53 0.51 0.55 0.51 0.44 0.47 0.50 0.49 0.44 0.44 0.48 0.50 0.52 0.57 0.59 0.55 0.53 0.55 0.56 0.59 0.63 0.66 0.69 0.68 0.69 0.71
0.92 0.95 0.90 0.86 0.85 0.82 0.78 0.77 0.79 0.75 0.71 0.70 0.66 0.63 0.58 0.53 0.56 0.59 0.53 0.49 0.50 0.48 0.43 0.45 0.47 0.49 0.44 0.44 0.49 0.49 0.46 0.50 0.54 0.55 0.55 0.57 0.59 0.59 0.61 0.62 0.62 0.63 0.65 0.68
0.91 0.92 0.91 0.81 0.75 0.75 0.82 0.85 0.86 0.85 0.82 0.81 0.80 0.73 0.64 0.59 0.57 0.58 0.57 0.55 0.54 0.50 0.46 0.48 0.49 0.49 0.47 0.48 0.51 0.51 0.46 0.45 0.47 0.48 0.51 0.54 0.58 0.60 0.61 0.63 0.62 0.61 0.60 0.62

GEFSNGP_prec_meanprecacc_354.txt.gz
Total_Precipitation_Accumulation
0.64 0.62 0.62 0.60 0.57 0.57 0.66 0.78 1.22 1.60 2.05 2.42 2.32 2.46 2.73 2.72 2.55 2.42 2.47 2.48 2.43 2.49 2.43 2.39 2.35 2.20 2.06 1.90 1.76 1.68 1.65 1.62 1.70 1.82 1.83 1.77 1.70 1.66 1.61 1.53 1.41 1.41 1.41 1.32
0.62 0.55 0.59 0.65 0.68 0.63 0.65 0.82 1.19 1.60 2.12 2.23 2.23 2.33 2.47 2.61 2.55 2.44 2.45 2.51 2.57 2.71 2.67 2.62 2.57 2.39 2.23 2.06 1.80 1.65 1.62 1.59 1.63 1.70 1.70 1.65 1.62 1.58 1.53 1.48 1.48 1.46 1.44 1.38
0.80 0.58 0.84 1.21 1.04 0.90 0.89 1.00 1.30 1.73 1.96 1.91 2.04 2.30 2.43 2.50 2.60 2.59 2.68 2.81 2.85 2.78 2.77 2.72 2.65 2.65 2.64 2.36 2.04 1.89 1.76 1.64 1.62 1.59 1.55 1.52 1.41 1.39 1.46 1.48 1.47 1.41 1.38 1.39
1.00 1.09 1.67 1.54 1.04 0.96 1.11 1.28 1.37 1.49 1.55 1.76 2.01 2.21 2.36 2.54 2.74 2.77 2.75 2.69 2.75 2.69 2.70 2.68 2.60 2.58 2.57 2.47 2.22 1.92 1.78 1.64 1.53 1.53 1.49 1.50 1.47 1.45 1.49 1.51 1.44 1.44 1.40 1.37
1.25 1.59 1.70 1.56 1.12 1.12 1.35 1.73 1.55 1.58 1.58 1.72 1.88 2.09 2.47 2.52 2.59 2.80 2.66 2.53 2.60 2.69 2.73 2.72 2.63 2.45 2.37 2.27 2.17 2.03 1.80 1.57 1.44 1.45 1.43 1.42 1.44 1.44 1.48 1.50 1.42 1.37 1.36 1.40
1.49 1.87 2.08 1.84 1.08 0.94 1.40 2.45 1.85 1.72 1.76 1.77 1.94 2.48 2.61 2.32 2.23 2.33 2.40 2.50 2.61 2.72 2.78 2.77 2.71 2.40 2.25 2.14 1.99 1.82 1.58 1.43 1.37 1.39 1.33 1.30 1.36 1.41 1.44 1.47 1.43 1.38 1.35 1.39
1.65 2.11 2.20 1.37 0.88 1.02 2.04 2.54 1.94 1.82 1.81 1.88 2.13 2.30 2.09 1.91 1.98 2.13 2.31 2.45 2.54 2.58 2.61 2.57 2.55 2.33 2.21 2.01 1.85 1.55 1.32 1.27 1.31 1.31 1.26 1.21 1.25 1.31 1.38 1.36 1.39 1.41 1.33 1.31
1.84 2.30 2.43 1.21 1.01 1.45 1.82 1.51 1.45 1.47 1.47 1.53 1.65 1.71 1.75 1.78 1.86 1.94 2.09 2.28 2.36 2.41 2.40 2.30 2.22 2.14 2.03 1.85 1.58 1.38 1.26 1.21 1.28 1.35 1.18 1.09 1.18 1.17 1.21 1.37 1.34 1.31 1.33 1.23
2.05 2.41 2.00 1.31 1.27 1.28 1.31 1.32 1.26 1.30 1.28 1.31 1.39 1.45 1.58 1.77 1.86 1.88 1.86 2.04 2.09 2.00 1.89 1.91 1.86 1.82 1.75 1.57 1.37 1.28 1.30 1.35 1.34 1.31 1.24 1.23 1.25 1.20 1.22 1.31 1.32 1.24 1.22 1.13
1.81 1.90 1.58 1.27 1.18 1.18 1.08 1.05 1.07 1.20 1.20 1.15 1.14 1.10 1.23 1.40 1.58 1.69 1.68 1.67 1.75 1.73 1.65 1.62 1.56 1.48 1.42 1.29 1.26 1.27 1.32 1.41 1.49 1.36 1.22 1.23 1.29 1.18 1.18 1.18 1.19 1.17 1.14 1.12
1.92 1.87 1.63 1.43 1.23 1.13 1.10 1.07 1.10 1.14 1.07 0.98 0.92 0.91 0.96 1.12 1.24 1.36 1.47 1.41 1.42 1.53 1.55 1.43 1.32 1.28 1.22 1.13 1.15 1.30 1.35 1.32 1.37 1.31 1.25 1.25 1.24 1.11 1.05 1.01 1.05 1.12 1.11 1.12
2.16 1.82 1.72 1.58 1.24 1.04 1.06 1.07 1.02 0.97 0.92 0.90 0.85 0.83 0.86 1.03 1.15 1.22 1.28 1.31 1.35 1.39 1.37 1.29 1.21 1.14 1.08 1.01 1.05 1.23 1.31 1.27 1.20 1.17 1.19 1.15 1.19 1.17 1.11 1.04 1.00 0.94 0.96 0.92
1.52 1.31 1.27 1.21 1.09 1.07 0.99 0.92 0.94 0.89 0.82 0.81 0.79 0.73 0.81 0.96 1.00 1.06 1.14 1.18 1.28 1.27 1.22 1.13 1.09 1.12 1.12 1.06 1.01 1.10 1.16 1.14 1.12 1.10 1.11 1.08 1.09 1.16 1.16 0.99 0.89 0.85 0.86 0.82
1.16 1.19 1.27 1.09 0.95 0.90 0.83 0.76 0.78 0.76 0.76 0.78 0.79 0.73 0.73 0.78 0.82 0.91 1.02 1.07 1.10 1.04 1.08 1.11 1.05 1.01 1.01 0.98 0.93 0.91 0.97 0.93 0.91 0.95 0.96 0.97 0.98 0.97 0.97 0.95 0.92 0.83 0.78 0.79
1.01 1.02 1.10 0.93 0.76 0.77 0.77 0.71 0.77 0.79 0.78 0.79 0.78 0.70 0.66 0.73 0.79 0.84 0.87 0.89 0.93 0.91 0.90 0.96 1.03 0.99 0.90 0.86 0.86 0.83 0.84 0.85 0.79 0.79 0.86 0.88 0.89 0.89 0.86 0.86 0.86 0.83 0.76 0.73
0.95 0.89 0.84 0.78 0.70 0.71 0.77 0.79 0.80 0.82 0.83 0.82 0.80 0.74 0.69 0.74 0.82 0.83 0.81 0.81 0.85 0.82 0.78 0.81 0.89 0.86 0.80 0.75 0.74 0.77 0.75 0.78 0.73 0.67 0.69 0.76 0.78 0.79 0.77 0.78 0.78 0.77 0.73 0.68
1.03 1.01 0.90 0.83 0.81 0.82 0.82 0.80 0.75 0.73 0.74 0.81 0.79 0.70 0.66 0.71 0.82 0.83 0.85 0.76 0.70 0.69 0.64 0.66 0.73 0.75 0.76 0.72 0.67 0.64 0.66 0.69 0.72 0.67 0.62 0.63 0.63 0.64 0.63 0.66 0.72 0.75 0.70 0.68
0.92 0.91 0.87 0.89 0.86 0.83 0.80 0.72 0.69 0.68 0.68 0.73 0.74 0.73 0.73 0.78 0.80 0.75 0.74 0.65 0.62 0.62 0.57 0.53 0.61 0.69 0.75 0.76 0.68 0.62 0.60 0.64 0.65 0.64 0.63 0.61 0.58 0.59 0.61 0.62 0.61 0.67 0.68 0.74
0.77 0.77 0.78 0.81 0.81 0.83 0.81 0.73 0.69 0.63 0.63 0.66 0.72 0.78 0.81 0.81 0.78 0.71 0.67 0.67 0.70 0.74 0.65 0.57 0.64 0.67 0.70 0.71 0.74 0.72 0.70 0.69 0.67 0.68 0.67 0.64 0.61 0.63 0.68 0.67 0.64 0.63 0.64 0.69
0.72 0.71 0.72 0.74 0.69 0.70 0.71 0.66 0.63 0.60 0.63 0.69 0.68 0.67 0.76 0.76 0.73 0.71 0.70 0.73 0.69 0.66 0.60 0.57 0.57 0.64 0.67 0.67 0.74 0.72 0.75 0.73 0.69 0.72 0.77 0.74 0.70 0.70 0.68 0.69 0.70 0.71 0.71 0.75
0.72 0.72 0.70 0.68 0.62 0.56 0.56 0.59 0.60 0.62 0.67 0.71 0.65 0.61 0.67 0.70 0.66 0.70 0.74 0.71 0.62 0.58 0.62 0.62 0.55 0.57 0.62 0.68 0.76 0.74 0.75 0.75 0.74 0.72 0.74 0.77 0.73 0.76 0.76 0.74 0.74 0.75 0.78 0.79
0.78 0.79 0.71 0.70 0.66 0.60 0.58 0.61 0.58 0.57 0.58 0.61 0.60 0.62 0.66 0.68 0.67 0.70 0.74 0.68 0.55 0.53 0.52 0.56 0.55 0.57 0.59 0.64 0.66 0.69 0.70 0.72 0.74 0.71 0.69 0.73 0.75 0.78 0.78 0.77 0.80 0.80 0.80 0.80
0.85 0.83 0.74 0.75 0.73 0.71 0.68 0.59 0.52 0.53 0.58 0.59 0.60 0.62 0.64 0.68 0.68 0.71 0.70 0.61 0.53 0.53 0.49 0.49 0.54 0.55 0.54 0.52 0.56 0.63 0.63 0.66 0.70 0.71 0.69 0.70 0.74 0.76 0.73 0.75 0.81 0.82 0.77 0.76
0.87 0.87 0.77 0.74 0.69 0.75 0.75 0.62 0.55 0.60 0.67 0.63 0.62 0.61 0.60 0.60 0.63 0.61 0.59 0.63 0.61 0.57 0.50 0.52 0.54 0.52 0.51 0.45 0.49 0.56 0.61 0.61 0.62 0.65 0.67 0.65 0.67 0.72 0.72 0.73 0.78 0.78 0.73 0.70
0.90 0.91 0.84 0.82 0.84 0.84 0.80 0.72 0.68 0.66 0.66 0.64 0.61 0.61 0.60 0.60 0.64 0.62 0.57 0.54 0.59 0.55 0.48 0.51 0.54 0.53 0.47 0.46 0.50 0.52 0.54 0.60 0.62 0.58 0.57 0.58 0.59 0.62 0.67 0.70 0.72 0.71 0.72 0.74
0.98 1.01 0.95 0.92 0.90 0.86 0.81 0.80 0.82 0.78 0.74 0.73 0.69 0.66 0.61 0.56 0.58 0.62 0.55 0.51 0.52 0.50 0.45 0.47 0.50 0.52 0.46 0.46 0.51 0.52 0.49 0.53 0.57 0.58 0.58 0.60 0.62 0.62 0.64 0.65 0.65 0.66 0.68 0.72
0.98 0.99 0.97 0.87 0.80 0.78 0.85 0.88 0.89 0.88 0.84 0.84 0.83 0.76 0.66 0.62 0.59 0.60 0.59 0.57 0.54 0.51 0.48 0.50 0.52 0.52 0.51 0.51 0.53 0.54 0.49 0.49 0.52 0.52 0.54 0.58 0.61 0.63 0.64 0.65 0.65 0.64 0.63 0.66